Colby, KS

11:42 PM CST on December 10, 2019 (GMT -0600)
Shaltz

Weather History for KCBK - November, 2019

Change the Weather History Date:

Tuesday, November 19, 2019

  Actual Average (WUND) Record (WUND)
Temperature  
Mean Temperature 47 °F -  
Max Temperature 68 °F - - (-1)
Min Temperature 26 °F - - (-1)
Degree Days  
Heating Degree Days 18    
Moisture  
Dew Point 27 °F    
Average Humidity 60    
Maximum Humidity 87    
Minimum Humidity 24    
Precipitation  
Precipitation 0.00 in - - ()
Sea Level Pressure  
Sea Level Pressure 29.85 in    
Wind  
Wind Speed 8 mph (South)    
Max Wind Speed 21 mph    
Max Gust Speed 28 mph    
Visibility 10 miles    
Events      
Averages and records for this station are not official NWS values.
T = Trace of Precipitation, MM = Missing Value Source: NWS Daily Summary

Daily Weather History Graph

Daily Weather History Graph

Search for Another Location

Airport or City:

Astronomy

Nov. 19, 2019 Rise Set
Actual Time 7:32 AM CST 5:26 PM CST
Civil Twilight 7:03 AM CST 5:55 PM CST
Nautical Twilight 6:30 AM CST 6:28 PM CST
Astronomical Twilight 5:58 AM CST 7:00 PM CST
Moon No Moon Rise 1:44 PM CST (11/19)
Length of Visible Light 10h 52m
Length of Day
9h 54m
Waning Gibbous, 51% of the Moon is Illuminated
Nov 19
Waning Gibbous
Nov 19
Last Quarter
Nov 26
New
Dec 4
First Quarter
Dec 11
Full

Hourly Weather History & Observations

Time (CST) Temp. Windchill Dew Point Humidity Pressure Visibility Wind Dir Wind Speed Gust Speed Precip Events Conditions
12:15 AM 32.0 °F 26.4 °F 24.8 °F 75% 29.96 in 10.0 mi West 5.8 mph - N/A   Clear
12:35 AM 32.0 °F 25.6 °F 23.0 °F 69% 29.96 in 10.0 mi West 6.9 mph - N/A   Clear
12:55 AM 28.4 °F 23.3 °F 21.2 °F 74% 29.96 in 10.0 mi West 4.6 mph - N/A   Clear
1:15 AM 26.6 °F 20.0 °F 21.2 °F 80% 29.95 in 10.0 mi West 5.8 mph - N/A   Clear
1:35 AM 26.6 °F 20.0 °F 21.2 °F 80% 29.95 in 10.0 mi West 5.8 mph - N/A   Clear
1:55 AM 26.6 °F 20.0 °F 21.2 °F 80% 29.95 in 10.0 mi West 5.8 mph - N/A   Clear
2:15 AM 26.6 °F 20.0 °F 21.2 °F 80% 29.95 in 10.0 mi West 5.8 mph - N/A   Clear
2:55 AM 26.6 °F 19.1 °F 21.2 °F 80% 29.95 in 10.0 mi West 6.9 mph - N/A   Clear
3:15 AM 28.4 °F 21.2 °F 21.2 °F 74% 29.93 in 10.0 mi West 6.9 mph - N/A   Clear
3:35 AM 26.6 °F 20.0 °F 21.2 °F 80% 29.93 in 10.0 mi West 5.8 mph - N/A   Clear
3:55 AM 26.6 °F 18.2 °F 21.2 °F 80% 29.93 in 10.0 mi WSW 8.1 mph - N/A   Clear
4:15 AM 26.6 °F 20.0 °F 21.2 °F 80% 29.92 in 10.0 mi WSW 5.8 mph - N/A   Clear
4:35 AM 28.4 °F 22.2 °F 23.0 °F 80% 29.92 in 10.0 mi WSW 5.8 mph - N/A   Clear
4:55 AM 32.0 °F 26.4 °F 24.8 °F 75% 29.92 in 10.0 mi WSW 5.8 mph - N/A   Clear
5:15 AM 30.2 °F 24.3 °F 23.0 °F 75% 29.91 in 10.0 mi SW 5.8 mph - N/A   Clear
5:35 AM 30.2 °F 26.7 °F 23.0 °F 75% 29.91 in 10.0 mi SW 3.5 mph - N/A   Clear
5:55 AM 30.2 °F 26.7 °F 23.0 °F 75% 29.91 in 10.0 mi SW 3.5 mph - N/A   Clear
6:15 AM 32.0 °F 28.7 °F 24.8 °F 75% 29.91 in 10.0 mi SW 3.5 mph - N/A   Clear
6:35 AM 32.0 °F 28.7 °F 26.6 °F 80% 29.91 in 10.0 mi SW 3.5 mph - N/A   Clear
6:55 AM 32.0 °F 28.7 °F 26.6 °F 80% 29.91 in 10.0 mi SW 3.5 mph - N/A   Clear
7:15 AM 32.0 °F 28.7 °F 26.6 °F 80% 29.91 in 10.0 mi SSW 3.5 mph - N/A   Clear
7:35 AM 32.0 °F 27.5 °F 26.6 °F 80% 29.91 in 10.0 mi SSW 4.6 mph - N/A   Clear
7:55 AM 32.0 °F 27.5 °F 24.8 °F 75% 29.91 in 10.0 mi SSW 4.6 mph - N/A   Clear
8:15 AM 33.8 °F - 28.4 °F 81% 29.91 in 10.0 mi Calm Calm - N/A   Clear
8:35 AM 37.4 °F 34.9 °F 28.4 °F 70% 29.91 in 10.0 mi South 3.5 mph - N/A   Clear
8:55 AM 41.0 °F - 30.2 °F 65% 29.91 in 10.0 mi Calm Calm - N/A   Clear
9:15 AM 46.4 °F 41.1 °F 26.6 °F 46% 29.91 in 10.0 mi South 11.5 mph - N/A   Clear
9:35 AM 50.0 °F - 24.8 °F 37% 29.90 in 10.0 mi South 12.7 mph - N/A   Clear
10:15 AM 53.6 °F - 23.0 °F 30% 29.89 in 10.0 mi SSE 12.7 mph 20.7 mph N/A   Clear
10:35 AM 53.6 °F - 23.0 °F 30% 29.89 in 10.0 mi SSE 12.7 mph - N/A   Clear
10:55 AM 55.4 °F - 23.0 °F 29% 29.87 in 10.0 mi South 18.4 mph 25.3 mph N/A   Clear
11:15 AM 57.2 °F - 23.0 °F 27% 29.86 in 10.0 mi South 18.4 mph 26.5 mph N/A   Clear
11:35 AM 59.0 °F - 26.6 °F 29% 29.85 in 10.0 mi South 19.6 mph 27.6 mph N/A   Clear
12:15 PM 59.0 °F - 28.4 °F 31% 29.84 in 10.0 mi South 19.6 mph 25.3 mph N/A   Clear
12:55 PM 62.6 °F - 28.4 °F 27% 29.81 in 10.0 mi South 20.7 mph 25.3 mph N/A   Clear
1:15 PM 62.6 °F - 30.2 °F 30% 29.80 in 10.0 mi South 17.3 mph 24.2 mph N/A   Clear
1:55 PM 64.4 °F - 30.2 °F 28% 29.79 in 10.0 mi South 16.1 mph 23.0 mph N/A   Clear
2:15 PM 64.4 °F - 30.2 °F 28% 29.78 in 10.0 mi South 13.8 mph 18.4 mph N/A   Clear
2:35 PM 66.2 °F - 30.2 °F 26% 29.77 in 10.0 mi SSE 15.0 mph 19.6 mph N/A   Clear
2:55 PM 68.0 °F - 30.2 °F 24% 29.76 in 10.0 mi South 13.8 mph - N/A   Clear
3:15 PM 68.0 °F - 30.2 °F 24% 29.75 in 10.0 mi SSE 11.5 mph 19.6 mph N/A   Clear
3:35 PM 68.0 °F - 30.2 °F 24% 29.75 in 10.0 mi South 11.5 mph - N/A   Clear
5:15 PM 53.6 °F - 30.2 °F 41% 29.74 in 10.0 mi SE 6.9 mph - N/A   Clear
5:35 PM 50.0 °F - 30.2 °F 47% 29.75 in 10.0 mi SE 6.9 mph - N/A   Clear
5:55 PM 48.2 °F - 30.2 °F 50% 29.75 in 10.0 mi SE 8.1 mph - N/A   Clear
6:35 PM 50.0 °F - 32.0 °F 50% 29.75 in 10.0 mi SE 9.2 mph - N/A   Clear
6:55 PM 51.8 °F - 32.0 °F 47% 29.75 in 10.0 mi SE 11.5 mph - N/A   Clear
7:35 PM 50.0 °F - 32.0 °F 50% 29.76 in 10.0 mi SE 11.5 mph - N/A   Clear
7:55 PM 48.2 °F - 32.0 °F 54% 29.76 in 10.0 mi SE 10.4 mph - N/A   Clear
8:15 PM 46.4 °F 41.9 °F 32.0 °F 57% 29.76 in 10.0 mi SE 9.2 mph - N/A   Clear
8:35 PM 46.4 °F 41.9 °F 32.0 °F 57% 29.76 in 10.0 mi SE 9.2 mph - N/A   Clear
8:55 PM 44.6 °F 39.7 °F 32.0 °F 61% 29.75 in 10.0 mi SE 9.2 mph - N/A   Clear
9:15 PM 41.0 °F 36.4 °F 32.0 °F 70% 29.74 in 10.0 mi SE 6.9 mph - N/A   Clear
9:35 PM 41.0 °F 35.8 °F 32.0 °F 70% 29.74 in 10.0 mi ESE 8.1 mph - N/A   Clear
9:55 PM 37.4 °F 31.4 °F 30.2 °F 75% 29.73 in 10.0 mi ESE 8.1 mph - N/A   Clear
10:15 PM 35.6 °F 29.2 °F 30.2 °F 81% 29.72 in 10.0 mi SE 8.1 mph - N/A   Clear
10:35 PM 35.6 °F 29.2 °F 30.2 °F 81% 29.72 in 10.0 mi SE 8.1 mph - N/A   Clear
11:15 PM 33.8 °F 28.6 °F 30.2 °F 87% 29.72 in 10.0 mi ESE 5.8 mph - N/A   Clear
11:55 PM 35.6 °F 30.7 °F 30.2 °F 81% 29.71 in 10.0 mi SE 5.8 mph - N/A   Clear